Weather History for Ozona, TX

Change the Weather History Date:

Thursday, May 16, 2013

  Actual Average Record
Temperature  
Mean Temperature 84 °F -  
Max Temperature 100 °F 86 °F 100 °F (2013)
Min Temperature 68 °F 59 °F 52 °F (2012)
Cooling Degree Days 19    
Growing Degree Days 34 (Base 50)    
Moisture  
Dew Point 51 °F    
Average Humidity 49    
Maximum Humidity 88    
Minimum Humidity 10    
Precipitation  
Precipitation 0.00 in - - ()
Sea Level Pressure  
Sea Level Pressure 29.82 in    
Wind  
Wind Speed 10 mph (SSW)    
Max Wind Speed 21 mph    
Max Gust Speed 29 mph    
Visibility 10 miles    
Events      
Averages and records for this station are not official NWS values.
T = Trace of Precipitation, MM = Missing Value Source: NWS Daily Summary

Daily Weather History Graph

Daily Weather History Graph

Search for Another Location

Airport:

Trip Planner

Search our weather history database for the weather conditions in past years. The results will help you decide how hot, cold, wet, or windy it might be!

Date:

Astronomy

May. 16, 2013 Rise Set
Actual Time 6:49 AM CDT 8:33 PM CDT
Civil Twilight 6:22 AM CDT 9:00 PM CDT
Nautical Twilight 5:50 AM CDT 9:32 PM CDT
Astronomical Twilight 5:17 AM CDT 10:05 PM CDT
Moon 12:16 PM CDT (5/16) 1:01 AM CDT (5/16)
Length of Visible Light 14h 37m
Length of Day
13h 44m
Waxing Crescent, 36% of the Moon is Illuminated
May 16
Waxing Crescent
May 17
First Quarter
May 24
Full
May 31
Last Quarter
Jun 8
New

Hourly Weather History & Observations

Time (CDT) Temp. Heat Index Dew Point Humidity Pressure Visibility Wind Dir Wind Speed Gust Speed Precip Events Conditions
12:15 AM 78.8 °F - 59.0 °F 51% 29.85 in 10.0 mi South 13.8 mph 19.6 mph N/A   Clear
12:35 AM 77.0 °F - 60.8 °F 57% 29.84 in 10.0 mi South 12.7 mph 18.4 mph N/A   Clear
12:55 AM 77.0 °F - 60.8 °F 57% 29.84 in 10.0 mi South 20.7 mph 28.8 mph N/A   Clear
1:15 AM 77.0 °F - 62.6 °F 61% 29.84 in 10.0 mi South 16.1 mph 24.2 mph N/A   Clear
1:35 AM 75.2 °F - 62.6 °F 65% 29.83 in 10.0 mi South 13.8 mph 19.6 mph N/A   Clear
2:15 AM 73.4 °F - 62.6 °F 69% 29.83 in 10.0 mi South 11.5 mph - N/A   Clear
2:35 AM 73.4 °F - 62.6 °F 69% 29.82 in 10.0 mi South 10.4 mph - N/A   Clear
2:55 AM 73.4 °F - 62.6 °F 69% 29.82 in 10.0 mi South 13.8 mph 18.4 mph N/A   Clear
3:15 AM 71.6 °F - 62.6 °F 73% 29.82 in 10.0 mi South 9.2 mph 16.1 mph N/A   Clear
3:35 AM 71.6 °F - 64.4 °F 78% 29.82 in 10.0 mi South 11.5 mph 18.4 mph N/A   Clear
3:55 AM 71.6 °F - 64.4 °F 78% 29.82 in 10.0 mi South 12.7 mph 19.6 mph N/A   Clear
4:15 AM 71.6 °F - 64.4 °F 78% 29.82 in 10.0 mi South 13.8 mph 17.3 mph N/A   Clear
4:35 AM 71.6 °F - 64.4 °F 78% 29.82 in 10.0 mi South 10.4 mph - N/A   Clear
4:55 AM 71.6 °F - 64.4 °F 78% 29.82 in 10.0 mi South 8.1 mph - N/A   Clear
5:35 AM 69.8 °F - 64.4 °F 83% 29.82 in 10.0 mi SSW 6.9 mph - N/A   Clear
5:55 AM 69.8 °F - 64.4 °F 83% 29.82 in 10.0 mi SSW 6.9 mph - N/A   Clear
6:15 AM 68.0 °F - 64.4 °F 88% 29.82 in 10.0 mi SSW 6.9 mph - N/A   Clear
6:35 AM 68.0 °F - 64.4 °F 88% 29.82 in 10.0 mi SSW 4.6 mph - N/A   Clear
6:55 AM 68.0 °F - 64.4 °F 88% 29.82 in 10.0 mi SSW 4.6 mph - N/A   Clear
7:15 AM 68.0 °F - 64.4 °F 88% 29.84 in 7.0 mi SSW 5.8 mph - N/A   Clear
7:35 AM 68.0 °F - 64.4 °F 88% 29.84 in 7.0 mi SW 4.6 mph - N/A   Clear
8:15 AM 69.8 °F - 66.2 °F 88% 29.85 in 10.0 mi SSW 6.9 mph - N/A   Clear
8:55 AM 73.4 °F - 64.4 °F 73% 29.86 in 10.0 mi SSW 10.4 mph - N/A   Clear
9:15 AM 73.4 °F - 62.6 °F 69% 29.87 in 10.0 mi SSW 8.1 mph - N/A   Clear
9:55 AM 78.8 °F - 62.6 °F 57% 29.87 in 10.0 mi South 9.2 mph - N/A   Clear
10:55 AM 86.0 °F 84.2 °F 53.6 °F 33% 29.87 in 10.0 mi West 8.1 mph - N/A   Clear
11:15 AM 87.8 °F - 51.8 °F 29% 29.87 in 10.0 mi West 8.1 mph - N/A   Clear
12:55 PM 95.0 °F - 37.4 °F 13% 29.86 in 10.0 mi Calm Calm - N/A   Clear
1:15 PM 96.8 °F - 37.4 °F 13% 29.85 in 10.0 mi Calm Calm - N/A   Clear
2:35 PM 98.6 °F - 35.6 °F 11% 29.82 in 10.0 mi WNW 3.5 mph - N/A   Clear
2:55 PM 98.6 °F - 35.6 °F 11% 29.82 in 10.0 mi NW 4.6 mph 17.3 mph N/A   Clear
3:55 PM 100.4 °F - 35.6 °F 11% 29.80 in 10.0 mi WNW 12.7 mph 17.3 mph N/A   Clear
4:15 PM 100.4 °F - 35.6 °F 11% 29.79 in 10.0 mi WNW 10.4 mph 17.3 mph N/A   Clear
5:15 PM 100.4 °F - 33.8 °F 10% 29.77 in 10.0 mi NNW 5.8 mph 20.7 mph N/A   Clear
6:15 PM 100.4 °F - 33.8 °F 10% 29.76 in 10.0 mi WNW 12.7 mph 18.4 mph N/A   Clear
7:35 PM 98.6 °F - 32.0 °F 10% 29.75 in 10.0 mi WNW 5.8 mph - N/A   Clear
8:15 PM 95.0 °F - 32.0 °F 11% 29.77 in 10.0 mi WNW 6.9 mph - N/A   Clear
8:55 PM 86.0 °F - 32.0 °F 14% 29.78 in 10.0 mi Calm Calm - N/A   Clear
9:35 PM 78.8 °F - 32.0 °F 18% 29.79 in 10.0 mi Calm Calm - N/A   Clear
10:15 PM 73.4 °F - 32.0 °F 22% 29.80 in 10.0 mi SSW 3.5 mph - N/A   Clear
10:35 PM 73.4 °F - 32.0 °F 22% 29.81 in 10.0 mi Calm Calm - N/A   Clear
10:55 PM 73.4 °F - 33.8 °F 23% 29.82 in 10.0 mi Calm Calm - N/A   Clear
11:15 PM 71.6 °F - 33.8 °F 25% 29.82 in 10.0 mi Calm Calm - N/A   Clear
11:35 PM 69.8 °F - 33.8 °F 27% 29.82 in 10.0 mi Calm Calm - N/A   Clear
11:55 PM 69.8 °F - 35.6 °F 28% 29.82 in 10.0 mi South 3.5 mph - N/A   Clear